FW8945 Weather Reports


time (UTC)temp
C
wind
direction
speed
KPH
gust
KPH
rain 1hr
cm
rain 24hr
cm
rain mn
cm
humidity
%
barometer
mb
20260510174558 22 0 0.0 12.9 0.00 0.46 0.00 64 1010.8
20260510173105 22 0 0.0 12.9 0.00 0.46 0.00 66 1010.7
20260510171557 21 0 0.0 6.4 0.00 0.46 0.00 67 1010.8
20260510170106 20 0 0.0 11.3 0.00 0.46 0.00 70 1010.9
20260510164553 19 0 0.0 9.7 0.00 0.46 0.00 72 1011.0
20260510163054 18 0 0.0 11.3 0.00 0.46 0.00 77 1011.2
20260510161555 17 0 0.0 6.4 0.00 0.46 0.00 79 1011.3
20260510160052 17 0 0.0 1.6 0.00 0.46 0.00 78 1011.4
20260510154554 16 0 0.0 1.6 0.00 0.46 0.00 82 1011.3
20260510153054 15 0 0.0 6.4 0.00 0.46 0.00 83 1011.6
20260510151558 15 0 1.6 8.0 0.00 0.46 0.00 85 1011.6
20260510150055 14 138 0.0 6.4 0.00 0.46 0.00 87 1011.6
20260510144555 13 135 0.0 8.0 0.00 0.46 0.00 87 1011.9
20260510143054 13 0 0.0 4.8 0.00 0.46 0.00 89 1011.6
20260510141602 13 0 0.0 4.8 0.00 0.46 0.00 91 1011.6
20260510140056 12 171 0.0 0.0 0.00 0.46 0.00 91 1011.6
20260510134604 12 0 0.0 3.2 0.00 0.46 0.00 93 1011.5
20260510133110 12 0 0.0 0.0 0.00 0.46 0.00 93 1011.6
20260510131603 11 0 1.6 6.4 0.00 0.46 0.00 93 1011.6
20260510130058 11 0 0.0 0.0 0.00 0.46 0.00 94 1011.2
20260510124558 11 0 0.0 0.0 0.00 0.46 0.00 94 1011.0
20260510123104 11 0 0.0 0.0 0.00 0.46 0.00 94 1011.1
20260510121553 11 0 0.0 0.0 0.00 0.46 0.00 94 1010.9
20260510120055 11 0 0.0 0.0 0.00 0.46 0.00 94 1010.9
20260510114554 11 0 0.0 0.0 0.00 0.46 0.00 94 1010.5
20260510113055 11 0 0.0 0.0 0.00 0.46 0.00 95 1010.6
20260510111559 10 0 0.0 0.0 0.00 0.46 0.00 94 1010.4
20260510110054 10 0 0.0 0.0 0.00 0.46 0.00 94 1010.2
20260510104556 10 0 0.0 0.0 0.00 0.46 0.00 94 1010.1
20260510103059 10 0 0.0 0.0 0.00 0.46 0.00 94 1009.8
20260510101555 10 0 0.0 0.0 0.00 0.46 0.00 94 1010.0
20260510100057 10 0 0.0 0.0 0.00 0.46 0.00 94 1010.0
20260510094552 10 0 0.0 0.0 0.00 0.46 0.00 94 1010.2
20260510093054 10 0 0.0 0.0 0.00 0.46 0.00 94 1009.9
20260510091558 10 0 0.0 0.0 0.00 0.46 0.00 94 1010.1
20260510090112 10 0 0.0 0.0 0.00 0.46 0.00 94 1010.2
20260510084559 10 0 0.0 0.0 0.00 0.46 0.00 94 1010.4
20260510083057 10 0 0.0 3.2 0.00 0.46 0.00 94 1010.4
20260510081555 10 0 0.0 6.4 0.00 0.46 0.00 94 1010.4
20260510080052 10 355 1.6 11.3 0.00 0.46 0.00 94 1010.2
20260510074554 11 0 0.0 0.0 0.00 0.46 0.00 94 1009.5
20260510073111 11 0 0.0 0.0 0.00 0.46 0.00 94 1009.6
20260510071605 10 0 0.0 0.0 0.00 0.46 0.00 94 1009.4
20260510070053 11 0 0.0 0.0 0.00 0.46 0.00 94 1009.5
20260510064601 11 0 0.0 0.0 0.00 0.46 0.00 94 1009.6
20260510063053 10 0 0.0 0.0 0.00 0.46 0.00 94 1009.7
20260510061556 10 0 0.0 0.0 0.00 0.46 0.00 94 1009.5
20260510060056 10 0 0.0 0.0 0.00 0.46 0.00 94 1009.3
20260510054552 10 0 0.0 0.0 0.00 0.46 0.00 94 1009.3
20260510053056 10 0 0.0 0.0 0.00 0.46 0.00 93 1009.3
20260510051557 10 0 0.0 0.0 0.00 0.46 0.00 94 1009.5
20260510050057 10 0 0.0 0.0 0.00 0.46 0.00 94 1009.6
20260510044555 10 0 0.0 0.0 0.00 0.46 0.00 94 1009.6
20260510043107 10 0 0.0 0.0 0.00 0.46 0.00 94 1009.5
20260510041559 10 0 0.0 0.0 0.00 0.46 0.00 94 1009.6
20260510040110 10 0 0.0 0.0 0.00 0.46 0.00 93 1009.4
20260510034552 9 0 0.0 0.0 0.00 0.46 0.46 93 1009.5
20260510033054 9 0 0.0 0.0 0.00 0.46 0.46 93 1009.5
20260510031557 9 0 0.0 0.0 0.00 0.46 0.46 92 1009.2
20260510030056 10 0 0.0 0.0 0.00 0.46 0.46 92 1009.2
20260510024553 10 0 0.0 0.0 0.00 0.46 0.46 92 1009.2
20260510023054 10 0 0.0 0.0 0.00 0.46 0.46 92 1009.3
20260510021554 10 0 0.0 0.0 0.00 0.46 0.46 92 1009.3
20260510020053 10 0 0.0 0.0 0.00 0.46 0.46 92 1009.3
20260510014606 10 0 0.0 0.0 0.00 0.46 0.46 92 1009.2
20260510013054 10 0 0.0 0.0 0.00 0.46 0.46 91 1009.3
20260510011557 10 0 0.0 0.0 0.00 0.46 0.46 91 1009.1
20260510010056 11 0 0.0 0.0 0.00 0.46 0.46 91 1008.9
20260510004559 11 0 0.0 0.0 0.00 0.46 0.46 91 1008.7
20260510003106 11 0 0.0 0.0 0.00 0.46 0.46 91 1008.6
20260510001557 11 0 0.0 0.0 0.00 0.46 0.46 90 1008.8
20260510000059 12 0 0.0 0.0 0.00 0.46 0.46 91 1008.7
20260509234602 12 0 0.0 0.0 0.00 0.46 0.46 91 1008.3
20260509233058 12 0 0.0 0.0 0.03 0.46 0.46 91 1008.3
20260509231600 12 0 0.0 0.0 0.05 0.46 0.46 91 1008.2
20260509230058 12 0 0.0 0.0 0.08 0.46 0.46 92 1008.2
20260509224559 12 0 0.0 0.0 0.10 0.46 0.46 91 1008.6
20260509223059 12 0 0.0 0.0 0.13 0.43 0.43 92 1008.7
20260509221605 12 0 0.0 0.0 0.15 0.41 0.41 91 1008.5
20260509220100 12 0 0.0 1.6 0.18 0.38 0.38 91 1008.6
20260509214607 12 0 0.0 0.0 0.20 0.36 0.36 91 1009.0
20260509213101 12 0 0.0 4.8 0.18 0.30 0.30 90 1008.8
20260509211600 12 0 0.0 0.0 0.13 0.25 0.25 89 1008.9
20260509210115 12 0 0.0 0.0 0.10 0.20 0.20 90 1008.9
20260509204600 12 0 0.0 0.0 0.08 0.15 0.15 89 1008.9
20260509203059 12 0 0.0 0.0 0.08 0.13 0.13 89 1008.9
20260509201601 12 0 0.0 0.0 0.08 0.13 0.13 87 1009.0
20260509200104 12 0 0.0 0.0 0.05 0.10 0.10 85 1009.2
20260509194558 13 0 0.0 6.4 0.03 0.08 0.08 83 1009.6
20260509193058 13 0 0.0 6.4 0.00 0.05 0.05 82 1009.3
20260509191601 13 0 0.0 0.0 0.00 0.05 0.05 83 1009.2
20260509190108 13 0 0.0 6.4 0.03 0.05 0.05 82 1009.2
20260509184554 13 0 0.0 0.0 0.05 0.05 0.05 82 1009.1
20260509183057 13 332 3.2 14.5 0.05 0.05 0.05 78 1009.3
20260509181602 14 0 0.0 8.0 0.05 0.05 0.05 77 1009.6